| time (UTC) | temp F | wind direction | speed knots | gust knots | rain 1hr in | rain 24hr in | rain mn in | humidity % | barometer mb |
| 20260510060805 | 48 | 279 | 3.5 | 6.1 | 0.00 | 0.09 | 0.00 | 65 | 1006.6 |
| 20260510060305 | 48 | 284 | 2.6 | 11.3 | 0.00 | 0.09 | 0.00 | 65 | 1006.5 |
| 20260510050805 | 49 | 278 | 4.3 | 7.0 | 0.00 | 0.09 | 0.00 | 67 | 1006.4 |
| 20260510050305 | 49 | 288 | 2.6 | 7.0 | 0.00 | 0.09 | 0.00 | 67 | 1006.4 |
| 20260510040805 | 49 | 287 | 2.6 | 5.2 | 0.00 | 0.09 | 0.00 | 68 | 1005.4 |
| 20260510040305 | 49 | 275 | 2.6 | 8.7 | 0.00 | 0.09 | 0.00 | 68 | 1005.4 |
| 20260510030804 | 52 | 279 | 4.3 | 7.0 | 0.00 | 0.09 | 0.09 | 73 | 1004.8 |
| 20260510030305 | 52 | 300 | 2.6 | 13.0 | 0.00 | 0.09 | 0.09 | 73 | 1005.0 |
| 20260510020805 | 53 | 289 | 2.6 | 5.2 | 0.00 | 0.09 | 0.09 | 88 | 1004.1 |
| 20260510010305 | 54 | 244 | 1.7 | 10.4 | 0.00 | 0.09 | 0.09 | 86 | 1002.3 |
| 20260510000804 | 56 | 254 | 2.6 | 5.2 | 0.01 | 0.09 | 0.09 | 84 | 1001.6 |
| 20260510000305 | 56 | 229 | 2.6 | 10.4 | 0.01 | 0.09 | 0.09 | 84 | 1001.5 |
| 20260509220306 | 56 | 220 | 4.3 | 17.4 | 0.09 | 0.09 | 0.09 | 85 | 1001.1 |
| 20260509210805 | 57 | 137 | 2.6 | 11.3 | 0.00 | 0.00 | 0.00 | 74 | 1001.1 |
| 20260509210305 | 57 | 122 | 5.2 | 13.0 | 0.00 | 0.00 | 0.00 | 73 | 1000.7 |
| 20260509200304 | 58 | 160 | 4.3 | 15.6 | 0.00 | 0.00 | 0.00 | 74 | 1001.3 |
| 20260509190804 | 61 | 148 | 8.7 | 15.6 | 0.00 | 0.00 | 0.00 | 69 | 1001.6 |
| 20260509190304 | 62 | 160 | 6.1 | 20.9 | 0.00 | 0.00 | 0.00 | 68 | 1001.8 |
| 20260509180805 | 64 | 178 | 6.1 | 15.6 | 0.00 | 0.00 | 0.00 | 65 | 1001.6 |
| 20260509170306 | 60 | 221 | 4.3 | 11.3 | 0.00 | 0.00 | 0.00 | 74 | 1003.1 |
| 20260509160804 | 56 | 184 | 3.5 | 7.8 | 0.00 | 0.00 | 0.00 | 81 | 1003.8 |
| 20260509150805 | 55 | 219 | 4.3 | 11.3 | 0.00 | 0.00 | 0.00 | 80 | 1004.3 |
| 20260509150305 | 55 | 202 | 4.3 | 11.3 | 0.00 | 0.00 | 0.00 | 80 | 1004.1 |
| 20260509140805 | 56 | 191 | 5.2 | 10.4 | 0.00 | 0.00 | 0.00 | 74 | 1004.8 |
| 20260509140305 | 56 | 179 | 5.2 | 10.4 | 0.00 | 0.00 | 0.00 | 73 | 1004.7 |
| 20260509130805 | 51 | 125 | 2.6 | 10.4 | 0.00 | 0.00 | 0.00 | 71 | 1005.4 |
| 20260509130305 | 51 | 90 | 2.6 | 7.8 | 0.00 | 0.00 | 0.00 | 71 | 1005.3 |
| 20260509120805 | 45 | 127 | 6.1 | 7.8 | 0.00 | 0.00 | 0.00 | 77 | 1005.3 |
| 20260509120305 | 44 | 114 | 3.5 | 7.8 | 0.00 | 0.00 | 0.00 | 79 | 1005.3 |
| 20260509110805 | 37 | 119 | 0.0 | 0.0 | 0.00 | 0.00 | 0.00 | 87 | 1005.5 |
| 20260509110305 | 37 | 119 | 0.0 | 0.0 | 0.00 | 0.00 | 0.00 | 87 | 1005.5 |
| 20260509100805 | 36 | 119 | 0.0 | 0.0 | 0.00 | 0.01 | 0.00 | 85 | 1005.9 |
| 20260509100305 | 36 | 119 | 0.0 | 0.0 | 0.00 | 0.01 | 0.00 | 85 | 1006.0 |
| 20260509090805 | 37 | 119 | 0.0 | 0.0 | 0.00 | 0.01 | 0.00 | 85 | 1006.1 |
| 20260509090305 | 37 | 119 | 0.0 | 0.0 | 0.00 | 0.01 | 0.00 | 85 | 1006.3 |
| 20260509080805 | 38 | 119 | 0.0 | 0.0 | 0.00 | 0.01 | 0.00 | 84 | 1006.1 |
| 20260509080305 | 38 | 119 | 0.0 | 0.0 | 0.00 | 0.01 | 0.00 | 84 | 1006.2 |
| 20260509070805 | 38 | 119 | 0.0 | 0.0 | 0.00 | 0.01 | 0.00 | 80 | 1006.4 |
| 20260509070305 | 38 | 119 | 0.0 | 1.7 | 0.00 | 0.01 | 0.00 | 80 | 1006.5 |